Vero Beach, FL

3:37 AM EDT on July 27, 2017 (GMT -0400)
Vero Beach Municipal

Weather History for KVRB - March, 2014

Change the Weather History Date:

Sunday, March 16, 2014

  Actual Average Record
Temperature  
Mean Temperature 70 °F 67 °F  
Max Temperature 85 °F 77 °F 89 °F (2005)
Min Temperature 55 °F 58 °F 35 °F (1988)
Degree Days  
Heating Degree Days 0 2  
Month to date heating degree days 13 37  
Since 1 July heating degree days 248 422  
Cooling Degree Days 5 4  
Month to date cooling degree days 47 64  
Year to date cooling degree days 255 203  
Growing Degree Days 20 (Base 50)    
Moisture  
Dew Point 61 °F    
Average Humidity 70    
Maximum Humidity 100    
Minimum Humidity 40    
Precipitation  
Precipitation 0.00 in 0.14 in 1.31 in (1959)
Month to date precipitation 0.14 2.01  
Year to date precipitation 6.69 7.18  
Sea Level Pressure  
Sea Level Pressure 29.93 in    
Wind  
Wind Speed 11 mph (SSE)    
Max Wind Speed 24 mph    
Max Gust Speed 31 mph    
Visibility 10 miles    
Events      
T = Trace of Precipitation, MM = Missing Value Source: NWS Daily Summary

Daily Weather History Graph

Daily Weather History Graph

Search for Another Location

Airport or City:

Trip Planner

Search our weather history database for the weather conditions in past years. The results will help you decide how hot, cold, wet, or windy it might be!

Date:

Astronomy

Mar. 16, 2014 Rise Set
Actual Time 7:30 AM EDT 7:30 PM EDT
Civil Twilight 7:06 AM EDT 7:54 PM EDT
Nautical Twilight 6:39 AM EDT 8:21 PM EDT
Astronomical Twilight 6:12 AM EDT 8:48 PM EDT
Moon 7:42 PM EDT (3/16) 7:14 AM EDT (3/16)
Length of Visible Light 12h 47m
Length of Day
12h 00m
Full, 100% of the Moon is Illuminated
Mar 16
Full
Mar 16
Full
Mar 23
Last Quarter
Mar 30
New
Apr 7
First Quarter

Hourly Weather History & Observations

Time (EDT) Temp. Heat Index Dew Point Humidity Pressure Visibility Wind Dir Wind Speed Gust Speed Precip Events Conditions
12:53 AM 69.1 °F - 63.0 °F 81% 30.05 in 10.0 mi SE 8.1 mph - N/A   Clear
1:53 AM 66.9 °F - 63.0 °F 87% 30.04 in 10.0 mi SE 6.9 mph - N/A   Clear
2:53 AM 64.9 °F - 62.1 °F 90% 30.03 in 10.0 mi SSE 3.5 mph - N/A   Clear
3:53 AM 59.0 °F - 59.0 °F 100% 30.01 in 10.0 mi Calm Calm - N/A   Clear
4:53 AM 59.0 °F - 57.9 °F 96% 30.00 in 10.0 mi Calm Calm - N/A   Clear
5:53 AM 57.0 °F - 57.0 °F 100% 29.99 in 10.0 mi Calm Calm - N/A   Clear
6:53 AM 55.9 °F - 55.9 °F 100% 30.00 in 9.0 mi Calm Calm - N/A   Partly Cloudy
7:36 AM 55.9 °F - 55.0 °F 97% 30.01 in 1.8 mi Calm Calm - N/A   Clear
7:43 AM 55.9 °F - 55.9 °F 100% 30.01 in 10.0 mi Calm Calm - N/A   Scattered Clouds
7:53 AM 57.9 °F - 57.0 °F 97% 30.01 in 10.0 mi Calm Calm - N/A   Scattered Clouds
8:53 AM 69.1 °F - 62.1 °F 78% 30.01 in 10.0 mi South 8.1 mph - N/A   Partly Cloudy
9:53 AM 75.0 °F - 61.0 °F 62% 29.99 in 10.0 mi South 16.1 mph - N/A   Clear
10:53 AM 79.0 °F - 60.1 °F 52% 29.97 in 10.0 mi South 16.1 mph 28.8 mph N/A   Clear
11:53 AM 80.1 °F 80.7 °F 59.0 °F 48% 29.96 in 10.0 mi South 18.4 mph 25.3 mph N/A   Scattered Clouds
12:53 PM 82.9 °F 82.6 °F 57.9 °F 42% 29.93 in 10.0 mi South 19.6 mph 26.5 mph N/A   Scattered Clouds
1:53 PM 82.0 °F 82.0 °F 57.9 °F 44% 29.91 in 10.0 mi South 13.8 mph - N/A   Scattered Clouds
2:53 PM 84.9 °F 83.9 °F 57.0 °F 38% 29.87 in 10.0 mi South 16.1 mph 27.6 mph N/A   Clear
3:53 PM 82.0 °F 84.1 °F 66.0 °F 58% 29.83 in 10.0 mi SSE 17.3 mph 24.2 mph N/A   Partly Cloudy
4:53 PM 79.0 °F - 66.9 °F 66% 29.82 in 10.0 mi SE 18.4 mph 26.5 mph N/A   Scattered Clouds
5:53 PM 78.1 °F - 66.0 °F 66% 29.81 in 10.0 mi SE 17.3 mph 25.3 mph N/A   Scattered Clouds
6:53 PM 75.9 °F - 66.0 °F 71% 29.83 in 10.0 mi SE 18.4 mph 27.6 mph N/A   Clear
7:53 PM 75.0 °F - 64.9 °F 71% 29.83 in 10.0 mi SSE 15.0 mph - N/A   Clear
8:53 PM 73.9 °F - 64.9 °F 73% 29.83 in 10.0 mi SSE 13.8 mph - N/A   Clear
9:53 PM 73.9 °F - 63.0 °F 68% 29.84 in 10.0 mi SSE 13.8 mph - N/A   Clear
10:53 PM 73.0 °F - 63.0 °F 71% 29.85 in 10.0 mi South 12.7 mph - N/A   Clear
11:53 PM 72.0 °F - 64.0 °F 76% 29.83 in 10.0 mi South 12.7 mph - N/A   Clear